STARLINK-6114 (56116 NORAD) Tracking and Keplerian Element Data

This shows tracking and keplerian element data for the satellite.

Feedback or suggestion? Click here.




ElementValue
Catalog56116
NameSTARLINK-6114
Epoch Orbit652
Epoch Day127.25001157
Epoch Year2023
RAAN37.6288
Inclination43.0007
Eccentricity0.0001416
Argument of Perigee277.3576
Mean Anonmoly174.6335
Mean Motion15.3105474
Decay Rate-0.00897447
L11 56116U 23046Z 23127.25001157 -.00897447 00000+0 -31925-1 0 9991
L22 56116 43.0007 37.6288 0001416 277.3576 174.6335 15.31054740 6520



Live tracking and technical data element details for STARLINK-6114 (NORAD 56116). STARLINK-6114 can be tracked NOW for your location showing map with azimuth and elevation plus other details from your city location.







IsCatalogInMostPopularTable: catalog: 56116, numindb: -1

Insert: records affected: 1


GetName: 56116 STARLINK-6114

Hit Count: inserted at: Sun, 04 Jun 2023 23:48:05 GMT